Location: Unspecified
(50.7693°N, 0.0000°E)
Time: 18:01:13
(UTC+00:00)

Transit 4A - Pass Details

Date: 29 June 2019
Orbit: 862 x 982 km, 66.8° (Epoch: 15 July)

Event Time Altitude Azimuth Distance (km) Brightness Sun altitude
Rises 04:50:03 0° 150° (SSE) 3,626 11.0 7.1°
Reaches altitude 10° 04:54:13 10° 124° (SE) 2,708 10.8 7.6°
Maximum altitude 04:56:47 13° 100° (E) 2,526 11.2 8.0°
Drops below altitude 10° 04:59:21 10° 76° (ENE) 2,734 12.5 8.4°
Sets 05:03:36 0° 49° (NE) 3,696 12.8 9.0°
